This demonstration page uses our WeatherBlox Daily Observations layout. Learn more.

Left ArrowRight Arrow

34.02893, -84.19858

Hourly Observations for February 28, 2022

Temp ( °F °C ) Dew Point ( °F °C ) Humidity (%) Winds ( mph kmh ) Pressure ( in mb ) Visibility ( mi km ) Precip ( " mm )
12:38 am 00:38 Cloudy 45 7.2 42 5.6 90 90 NW 3 6 30.16 1021 10 16 0.00 0.00
12:53 am 00:53 Cloudy 45 7.2 41 5 86 86 NW 5 7 30.16 1021 10 16 0.00 0.00
1:53 am 01:53 Cloudy 45 7.2 41 5 86 86 NNW 6 9 30.15 1021 10 16 0.00 0.00
2:53 am 02:53 Cloudy 45 7.2 42 5.6 90 90 N 3 6 30.14 1021 10 16 0.00 0.00
3:06 am 03:06 Cloudy 45 7.2 42 5.6 90 90 N 5 7 30.15 1021 10 16 0.00 0.00
3:30 am 03:30 Cloudy with Mist and Fog 45 7.2 42 5.6 90 90 N 5 7 30.15 1021 6 10 0.00 0.00
3:53 am 03:53 Cloudy with Mist and Fog 44 6.7 42 5.6 93 93 N 6 9 30.14 1021 5 8 0.00 0.00
4:45 am 04:45 Cloudy 45 7.2 42 5.6 90 90 N 3 6 30.15 1021 10 16 0.00 0.00
4:53 am 04:53 Cloudy 45 7.2 42 5.6 90 90 NNW 3 6 30.15 1021 10 16 0.00 0.00
5:18 am 05:18 Cloudy 45 7.2 42 5.6 90 90 N 5 7 30.16 1021 10 16 0.00 0.00
5:33 am 05:33 Cloudy 45 7.2 42 5.6 90 90 N 5 7 30.16 1021 10 16 0.00 0.00
5:53 am 05:53 Cloudy 45 7.2 42 5.6 90 90 Calm 30.16 1021 10 16 0.00 0.00
6:53 am 06:53 Cloudy 45 7.2 42 5.6 90 90 NNW 3 6 30.18 1022 10 16 0.00 0.00
7:41 am 07:41 Mostly Cloudy 45 7.2 41 5 86 86 NNW 5 7 30.21 1023 10 16 0.00 0.00
7:53 am 07:53 Mostly Cloudy 45 7.2 41 5 86 86 NNW 3 6 30.21 1023 10 16 0.00 0.00
8:04 am 08:04 Cloudy 45 7.2 40 4.4 83 83 N 7 11 30.21 1023 10 16 0.00 0.00
8:53 am 08:53 Cloudy 46 7.8 39 3.9 77 77 N 3 6 30.24 1024 10 16 0.00 0.00
9:02 am 09:02 Cloudy 47 8.3 40 4.4 77 77 NE 5 7 30.24 1024 10 16 0.00 0.00
9:53 am 09:53 Mostly Cloudy 50 10 44 6.7 80 80 NE 7 11 30.25 1024 10 16 0.00 0.00
10:53 am 10:53 Mostly Sunny 52 11.1 40 4.4 64 64 SE 6 9 30.24 1024 10 16 0.00 0.00
11:53 am 11:53 Sunny 55 12.8 36 2.2 49 49 Calm 30.23 1024 10 16 0.00 0.00
12:53 pm 12:53 Sunny 57 13.9 34 1.1 42 42 NE 3 6 30.21 1023 10 16 0.00 0.00
1:53 pm 13:53 Sunny 59 15 33 0.6 38 38 VRB 3 6 30.17 1022 10 16 0.00 0.00
2:53 pm 14:53 Sunny 61 16.1 32 0 34 34 Calm 30.15 1021 10 16 0.00 0.00
3:53 pm 15:53 Sunny 62 16.7 33 0.6 34 34 Calm 30.14 1021 10 16 0.00 0.00
4:53 pm 16:53 Sunny 63 17.2 34 1.1 34 34 N 3 6 30.13 1020 10 16 0.00 0.00
5:53 pm 17:53 Sunny 61 16.1 34 1.1 36 36 Calm 30.12 1020 10 16 0.00 0.00
6:53 pm 18:53 Clear 57 13.9 38 3.3 49 49 NW 5 7 30.13 1020 10 16 0.00 0.00
7:53 pm 19:53 Clear 49 9.4 40 4.4 71 71 N 3 6 30.14 1021 10 16 0.00 0.00
8:53 pm 20:53 Clear 49 9.4 36 2.2 61 61 N 3 6 30.16 1021 10 16 0.00 0.00
9:53 pm 21:53 Clear 45 7.2 37 2.8 74 74 Calm 30.17 1022 10 16 0.00 0.00
10:53 pm 22:53 Clear 43 6.1 37 2.8 80 80 Calm 30.17 1022 10 16 0.00 0.00
11:53 pm 23:53 Clear 42 5.6 37 2.8 82 82 Calm 30.16 1022 10 16 0.00 0.00

Powered by AerisWeather